Location: Unspecified
(51.5147°N, 7.4673°E)
Time: 00:26:13
(UTC+02:00)

ISS - Visible Passes

Search period start: 27 March 2023 00:00
Search period end: 06 April 2023 00:00
Orbit: 414 x 422 km, 51.6° (Epoch: 26 March)

Date Brightness Start Highest point End Pass type
(mag) Time Alt. Az. Time Alt. Az. Time Alt. Az.
27 Mar -3.8 20:30:46 10° W 20:34:08 89° SSW 20:37:30 10° E visible
27 Mar -2.7 22:07:36 10° W 22:10:26 36° SW 22:10:26 36° SW visible
28 Mar -3.3 21:19:29 10° W 21:22:45 51° SSW 21:24:18 26° SE visible
28 Mar -0.7 22:57:08 10° WSW 22:57:14 10° WSW 22:57:14 10° WSW visible
29 Mar -3.5 20:31:20 10° W 20:34:40 66° SSW 20:37:59 10° ESE visible
29 Mar -1.8 22:08:29 10° W 22:11:02 20° SW 22:11:05 20° SW visible
30 Mar -2.3 21:20:05 10° W 21:23:00 28° SSW 21:24:57 16° SSE visible
31 Mar -2.7 20:31:45 10° W 20:34:54 39° SSW 20:38:02 10° SE visible
01 Apr -1.2 21:20:59 10° WSW 21:22:55 14° SW 21:24:49 10° S visible
